Lapse_Rate
4.6 4.9 4.2 5.3 4.9 4.9 5.4 5.8 6.2 6.7 6.9 6.9 6.4 6.8 7.2 7.1 7.3 7.2 6.9 7.0 6.7 6.4 7.1 7.4 7.5 7.4 7.2 7.3 7.1 7.0 6.9 6.8 6.7 6.7 6.9 6.8 6.7 6.5 6.4 6.3 6.2 6.2 6.2 6.3
4.5 4.3 5.5 4.9 4.8 5.0 5.5 6.0 6.2 6.7 7.4 6.9 6.7 6.1 6.7 6.7 6.8 6.9 7.0 7.0 6.9 7.0 7.2 7.2 7.3 7.1 7.0 6.9 6.8 6.8 6.9 6.8 6.8 6.8 6.9 6.9 6.5 6.3 6.2 6.2 6.2 6.2 6.2 6.4
4.8 4.6 4.7 5.0 5.1 5.2 5.2 5.7 6.0 7.0 7.3 6.6 6.5 6.1 6.3 6.4 6.5 6.5 6.4 6.7 6.9 6.8 6.9 7.0 7.1 7.1 7.0 7.0 6.9 6.8 6.8 6.8 6.8 6.8 6.7 6.8 6.6 6.4 6.3 6.5 6.5 6.3 6.2 6.1
5.9 5.2 5.0 5.3 5.4 5.7 5.8 5.5 6.2 7.0 7.4 6.2 6.3 5.8 6.4 6.6 6.4 6.1 5.9 6.6 6.9 6.9 6.9 7.0 7.0 7.0 6.9 7.0 7.0 7.0 7.1 7.2 7.0 6.8 6.6 6.6 6.6 6.3 6.2 6.2 6.2 6.2 6.0 5.9
6.1 5.7 5.8 6.2 5.8 5.9 5.7 6.4 6.5 6.9 7.7 7.3 6.6 6.5 6.3 7.1 6.5 5.9 6.0 6.4 6.4 6.5 6.8 6.9 7.0 7.0 7.0 7.1 7.1 7.1 7.0 7.0 7.1 6.9 6.6 6.4 6.3 6.1 6.1 6.0 6.0 5.8 5.8 5.8
6.2 6.3 6.3 6.3 6.4 6.3 6.1 6.6 7.0 7.1 7.4 7.4 6.9 6.3 6.4 7.2 6.0 5.0 5.3 5.7 5.9 6.1 6.5 6.7 6.9 7.0 7.1 7.2 7.2 7.1 7.1 7.1 7.0 6.6 6.6 6.3 6.1 5.8 5.8 5.9 5.9 6.0 6.0 5.8
6.3 6.5 6.5 6.8 6.5 6.8 6.6 6.5 6.7 7.1 7.0 7.1 6.7 6.6 5.4 6.2 5.0 4.1 4.3 5.1 5.5 5.7 6.1 6.3 6.5 6.7 6.8 7.0 7.1 7.1 7.1 7.0 7.0 6.6 6.6 6.3 5.9 5.7 5.6 5.7 5.7 6.0 6.0 5.9
6.1 7.0 6.6 6.6 6.4 6.9 7.1 6.7 6.7 6.9 7.0 6.6 6.5 7.2 5.2 5.7 4.6 3.3 4.0 4.8 5.2 5.4 5.6 5.9 6.2 6.4 6.6 6.9 7.1 6.9 6.6 6.6 6.6 6.3 6.1 6.2 5.9 5.6 5.5 5.7 5.8 6.0 6.1 5.7
6.4 6.4 6.1 6.2 6.0 6.8 6.8 7.2 7.4 8.4 8.5 7.6 5.5 4.3 4.0 4.4 4.5 3.3 3.2 4.0 4.5 4.9 5.2 5.5 5.8 6.2 6.1 6.1 6.0 6.1 6.2 5.9 5.8 5.8 5.7 5.8 5.8 5.6 5.6 5.7 5.8 5.5 5.7 5.8
6.2 5.7 6.0 5.7 5.9 5.6 5.3 5.6 7.0 7.8 8.1 7.7 5.6 4.6 4.3 3.4 3.2 3.0 3.1 3.7 4.0 4.3 4.7 5.0 5.0 5.3 5.4 5.2 5.3 5.5 5.7 5.6 5.5 5.6 5.7 5.5 5.6 5.6 5.6 5.5 5.3 5.3 5.4 5.4
6.2 6.2 6.0 5.4 4.5 4.4 5.1 5.0 5.8 6.6 7.4 8.0 5.8 3.7 3.1 3.0 2.8 2.6 2.7 3.2 3.5 3.8 4.1 4.6 4.6 4.2 4.4 4.2 4.3 4.9 5.1 5.1 5.0 5.4 5.5 5.6 5.7 5.6 5.3 5.1 4.9 5.1 5.3 5.3
6.9 6.6 6.0 5.0 4.3 3.9 3.2 3.2 3.5 5.0 7.0 6.8 5.1 2.9 2.4 2.6 2.9 3.0 3.1 3.3 3.7 4.1 4.3 4.4 4.1 4.0 4.3 4.4 4.4 4.5 4.6 4.5 4.3 4.3 4.7 5.1 5.2 5.1 5.0 4.9 5.0 5.1 5.2 5.2
7.6 6.7 6.6 5.5 5.2 4.2 2.8 3.3 4.1 4.8 4.9 2.8 4.1 2.2 1.9 2.5 3.1 3.4 3.4 3.4 3.7 3.9 4.1 4.3 4.3 4.2 4.2 4.3 4.6 4.3 4.4 4.5 4.5 4.6 4.6 4.7 4.8 4.9 4.9 5.0 5.0 5.1 5.2 5.2
7.6 6.6 5.9 4.8 4.0 3.3 2.7 2.8 3.6 4.4 2.4 1.6 1.7 1.3 1.7 2.3 2.8 3.1 3.5 3.9 4.0 4.1 4.3 4.5 4.5 4.5 4.4 4.4 4.6 4.8 4.9 4.8 4.8 4.5 4.6 4.7 4.8 5.0 5.1 5.1 5.3 5.4 5.4 5.2
7.4 6.3 6.5 5.1 4.7 4.5 2.8 2.8 2.7 2.8 3.0 1.6 1.2 1.5 1.2 1.6 2.5 3.0 3.4 3.8 4.0 4.1 4.2 4.4 4.4 4.5 4.3 4.6 4.6 4.6 4.6 4.8 4.8 4.6 4.7 4.6 4.6 4.9 5.1 5.3 5.3 5.4 5.3 5.2
7.9 7.0 6.5 5.8 5.6 5.4 4.2 2.8 3.0 2.9 2.3 1.8 1.7 1.7 1.5 2.0 2.4 2.8 3.3 3.8 4.1 4.3 4.3 4.3 4.4 4.5 4.4 4.2 4.5 4.6 4.7 4.7 4.7 4.7 5.1 5.0 4.8 4.6 4.7 4.9 5.5 5.5 5.4 5.1
7.8 7.3 6.9 6.8 6.6 6.4 5.0 3.1 2.9 2.3 2.3 2.1 2.1 1.5 2.0 2.3 2.3 3.2 3.5 3.7 4.3 4.3 4.3 4.3 4.4 4.5 4.7 4.7 4.6 4.9 4.9 5.1 5.3 5.2 5.2 5.1 5.1 5.2 5.4 5.1 5.2 5.6 5.5 5.1
8.1 8.2 8.0 7.6 7.0 5.1 4.5 4.0 3.4 3.2 2.5 2.7 2.3 2.2 2.4 2.5 2.1 3.3 3.3 3.8 4.2 4.7 5.0 4.8 4.6 4.6 4.6 4.7 4.8 4.9 5.3 5.6 5.9 5.8 5.9 5.8 5.6 5.6 5.6 5.7 5.5 5.7 5.1 5.0
7.7 8.0 8.0 7.2 5.9 5.1 4.7 4.6 4.0 3.5 3.3 3.4 3.3 3.2 3.3 2.9 3.2 3.0 2.7 3.3 4.2 4.8 5.1 5.2 5.2 5.1 5.0 5.0 5.0 5.2 5.4 5.5 6.1 6.4 6.3 6.3 6.0 6.0 6.0 5.6 5.8 5.6 5.5 5.5
7.2 7.4 7.8 7.6 6.7 6.1 5.0 4.8 4.7 4.2 3.8 4.1 4.0 3.9 4.0 3.9 3.2 3.6 3.7 4.1 4.1 4.4 5.0 5.2 5.5 5.5 5.5 5.5 5.5 5.5 5.7 5.8 6.1 6.6 6.8 6.1 6.5 6.6 6.4 6.2 5.9 6.0 5.9 5.9
6.7 7.0 6.9 7.1 6.6 5.8 5.7 5.3 4.9 4.7 4.5 4.5 4.5 4.4 4.1 3.8 3.5 3.6 3.6 3.9 4.0 4.3 4.6 5.4 5.8 5.7 5.7 5.8 5.9 5.9 5.9 5.7 5.9 6.4 6.7 6.8 6.5 6.3 6.0 6.2 6.0 6.0 6.0 5.9
5.1 5.8 5.7 6.3 6.3 5.4 5.5 5.8 5.4 4.9 4.6 4.6 4.8 4.7 4.5 4.3 4.3 4.0 3.8 3.9 3.9 4.2 4.4 4.8 5.3 5.5 5.5 6.0 6.0 6.1 6.1 6.2 6.0 6.1 6.3 6.7 6.9 6.9 6.5 6.5 5.9 5.7 5.9 5.9
5.3 5.2 5.1 5.4 5.3 5.5 5.5 5.5 5.6 5.7 5.6 5.3 4.9 4.9 4.7 4.6 4.5 4.4 4.3 4.2 4.0 4.3 4.6 4.7 5.0 5.0 5.3 5.4 6.0 6.4 6.3 6.1 5.9 6.2 6.4 6.7 7.0 6.9 6.8 6.9 6.8 6.3 5.9 6.0
5.5 5.5 5.5 5.4 5.6 5.9 5.9 5.7 5.5 5.6 5.6 5.6 5.7 5.6 5.3 5.1 4.9 4.5 4.5 4.4 4.4 4.4 4.5 4.6 4.9 5.1 5.3 5.4 5.6 6.2 6.8 6.8 6.1 6.3 6.4 6.7 6.9 6.9 6.9 7.1 7.1 6.8 6.2 6.0
5.8 5.8 5.8 5.8 5.8 5.9 6.0 6.2 6.0 5.8 5.5 5.4 5.3 5.5 5.7 5.7 5.4 5.2 4.6 4.5 4.5 4.7 4.7 5.0 5.1 5.2 5.4 5.5 5.6 5.8 6.4 6.9 7.0 6.8 6.8 6.6 6.9 7.1 6.8 6.8 6.8 6.8 6.8 6.1
5.7 5.7 5.5 5.4 5.4 5.5 5.4 5.5 5.6 5.7 5.7 5.6 5.5 5.3 5.2 5.4 5.4 5.5 5.5 5.3 5.0 4.8 4.7 4.5 4.8 5.0 5.0 5.4 5.8 6.0 6.2 6.3 6.7 7.2 7.3 7.0 7.0 7.1 7.1 7.0 6.9 6.8 6.7 6.5
Wind_Speed
19 16 25 37 30 18 19 17 22 12 14 19 19 14 8 7 6 7 7 7 8 9 6 7 7 7 7 3 5 6 6 7 5 4 5 4 7 8 4 5 10 11 13 14
16 26 33 19 18 19 22 18 18 13 12 14 14 13 10 11 6 8 9 9 8 7 8 7 8 9 11 6 5 5 7 7 6 5 4 4 6 8 7 5 9 13 14 15
23 22 20 19 21 25 26 26 18 10 6 2 5 7 13 8 13 13 9 8 8 7 9 12 12 9 11 13 7 6 7 8 6 7 5 4 5 4 3 6 6 6 15 16
16 27 20 29 24 22 24 24 16 18 8 5 7 4 12 11 13 10 11 9 8 9 10 9 10 11 12 13 11 11 6 7 7 8 7 8 10 8 6 8 7 6 13 16
7 14 19 26 25 24 24 11 22 18 8 6 10 3 8 14 11 11 8 9 8 8 10 9 10 10 11 13 13 13 7 6 8 7 9 8 7 6 3 6 9 9 8 15
18 9 6 8 23 20 21 9 13 4 9 11 13 10 4 8 15 9 9 9 8 8 9 9 10 11 12 13 14 14 12 6 7 7 8 9 8 8 7 8 9 8 7 7
10 19 2 5 5 18 14 11 6 9 7 11 18 11 7 12 15 14 11 9 8 8 8 9 12 12 13 15 15 13 14 10 6 7 9 7 6 8 10 11 9 11 8 6
5 3 7 6 3 5 24 17 5 13 12 7 12 7 8 14 14 12 12 11 10 10 8 11 13 12 13 14 14 14 15 15 7 5 4 4 6 4 4 7 7 8 8 9
5 1 2 10 5 4 4 17 21 1 4 9 8 6 11 12 12 11 11 10 9 9 9 11 12 13 13 13 14 14 15 14 15 2 5 8 6 7 4 3 7 5 6 8
2 5 8 6 8 10 5 7 12 9 15 8 5 6 9 10 8 10 9 9 9 9 10 12 12 13 12 12 12 13 13 13 13 12 6 3 3 2 2 2 1 5 6 10
6 4 6 6 7 19 7 5 6 5 4 10 6 3 6 10 9 9 9 9 8 8 11 13 13 13 13 12 13 12 12 13 13 12 10 7 4 4 3 4 4 3 0 4
7 3 4 6 11 8 16 10 4 3 9 5 4 4 7 8 9 8 9 10 9 10 11 12 13 14 14 14 13 12 12 11 11 12 11 9 3 7 7 6 6 5 5 5
12 5 1 5 3 11 9 21 12 4 3 4 4 5 8 9 10 10 10 8 9 11 12 12 13 13 14 14 14 14 13 12 11 11 10 10 8 4 5 6 6 6 7 6
8 10 12 9 9 9 10 21 24 10 3 9 10 12 12 11 11 10 9 10 12 12 13 13 13 13 13 14 14 14 13 11 11 12 12 10 9 7 5 5 5 5 5 5
4 7 15 14 15 21 20 22 21 24 14 6 11 14 10 11 10 11 10 13 13 14 15 15 15 14 14 15 16 15 15 14 13 13 11 11 10 9 6 6 5 6 6 6
4 4 9 11 12 21 22 22 21 18 20 12 12 13 9 11 9 10 14 15 16 16 16 16 17 17 16 17 16 16 14 14 13 12 12 12 11 9 7 7 6 6 6 5
7 1 5 2 3 5 10 19 15 15 16 10 12 6 12 13 12 13 14 15 16 16 16 16 16 15 15 16 16 16 15 14 12 12 12 10 10 10 9 6 6 7 7 6
6 6 3 1 2 6 6 12 7 14 14 15 10 12 13 13 8 15 15 15 14 15 16 15 14 15 16 15 15 16 14 12 12 12 13 10 10 11 10 8 7 6 6 8
9 2 3 3 5 5 6 10 6 5 11 14 14 14 16 17 10 8 17 16 14 14 13 13 13 14 15 15 15 15 14 13 12 12 13 14 13 10 9 9 6 7 7 6
14 3 3 3 4 3 2 11 12 2 2 14 14 13 15 15 9 8 16 15 15 14 13 14 15 14 14 15 15 15 14 14 14 16 16 14 16 9 9 8 8 6 5 8
6 5 6 6 3 3 8 10 7 2 5 14 13 13 13 9 7 13 14 14 13 13 15 15 14 13 14 15 15 15 14 13 15 14 15 16 16 8 7 8 6 6 6 6
3 3 3 5 4 2 9 5 5 2 5 11 11 11 11 12 13 12 13 14 15 15 15 15 14 14 14 14 14 15 15 15 15 14 13 14 15 11 5 7 6 6 5 5
3 3 0 3 2 3 3 5 2 1 2 2 4 10 10 10 12 14 12 11 11 14 13 13 12 14 13 14 14 15 16 16 16 15 14 12 15 12 5 5 5 5 5 3
1 2 1 1 3 2 4 3 4 2 1 4 4 4 9 7 11 11 10 10 11 11 11 12 13 14 15 15 14 13 16 16 15 14 14 12 12 12 6 4 3 2 4 4
2 3 3 1 2 5 3 3 1 2 2 4 5 4 6 4 7 5 9 9 10 11 10 12 12 13 15 15 15 14 15 16 15 14 12 11 9 9 6 4 4 3 3 4
0 3 2 2 4 4 5 4 5 5 4 4 3 7 6 3 7 4 8 5 8 9 9 11 11 12 13 15 14 15 15 16 15 13 11 10 9 8 4 4 3 7 3 5
Wind_Direction
203 204 210 211 215 218 207 198 214 221 197 182 200 197 197 144 136 122 125 102 70 51 35 32 18 3 358 208 189 192 187 195 167 171 151 158 187 204 193 171 165 163 155 152
206 220 220 216 210 228 231 230 225 211 226 178 193 209 198 161 152 106 87 65 58 44 27 22 16 14 359 306 231 213 202 191 184 174 164 153 172 200 193 157 163 168 160 157
220 229 228 220 216 214 220 225 231 229 115 43 165 210 204 187 111 100 83 75 61 52 43 28 14 2 358 351 313 230 218 201 191 177 146 136 133 111 153 185 174 183 165 156
257 240 234 218 231 227 227 219 227 240 152 184 177 232 194 174 123 102 86 69 58 52 46 33 12 4 358 345 336 321 235 205 201 183 164 169 176 174 195 190 182 173 172 163
255 256 234 239 225 228 240 220 208 227 223 135 186 129 231 159 131 111 82 66 48 47 53 31 14 4 0 356 346 335 302 248 203 192 174 179 176 189 155 172 173 184 185 172
259 277 321 284 241 233 238 231 238 226 233 231 192 179 204 154 145 110 85 60 39 39 44 28 17 14 10 4 354 342 326 266 222 193 168 184 184 177 169 177 185 174 176 169
303 250 265 360 274 225 219 165 177 200 206 210 199 192 78 63 75 91 85 60 35 34 36 22 19 17 13 8 357 348 346 314 247 172 168 189 214 193 184 184 182 171 174 178
335 157 1 8 354 300 198 197 178 190 198 174 172 201 118 90 78 72 65 51 33 23 25 21 22 23 15 9 2 355 350 346 315 160 158 235 235 219 217 181 186 169 171 180
326 297 31 50 329 22 280 203 211 245 164 195 118 74 85 104 90 78 66 53 33 16 18 17 16 18 18 10 5 0 354 349 356 240 192 209 249 218 211 206 159 169 158 178
334 286 7 46 11 6 357 335 196 225 196 181 105 135 149 121 83 68 51 41 28 14 14 15 16 13 11 11 5 3 1 353 346 357 343 216 240 297 304 333 251 158 163 172
341 282 38 68 53 35 352 24 325 293 199 194 131 96 26 64 57 38 34 32 18 15 14 13 9 4 1 2 359 356 360 357 348 351 343 333 197 195 190 220 255 253 155 174
352 301 51 84 119 99 54 14 288 291 178 46 73 102 44 52 52 38 26 16 13 17 14 9 6 2 357 354 353 353 355 354 351 343 335 330 242 181 192 205 204 190 209 209
353 13 233 152 322 19 36 8 349 210 287 40 109 120 60 39 43 31 22 9 16 14 7 5 4 6 355 348 351 351 349 348 343 340 331 341 338 199 198 196 197 204 206 216
64 44 71 86 80 51 36 21 18 49 33 81 60 84 40 27 22 19 9 20 12 9 6 1 3 358 355 349 346 344 341 341 339 338 343 331 331 326 211 204 201 191 198 215
81 90 99 106 96 66 44 36 27 44 35 58 104 67 24 18 9 7 24 13 8 6 3 359 357 354 353 346 341 339 336 337 339 341 333 324 322 304 250 202 203 193 194 213
351 130 135 131 111 72 49 30 41 33 33 41 67 63 12 2 359 30 21 10 6 3 359 355 353 350 348 343 336 332 331 329 329 328 326 322 322 317 294 201 200 196 180 205
354 295 200 167 322 55 31 15 30 52 40 27 41 17 6 5 3 45 22 11 2 359 355 351 348 345 342 337 330 331 327 328 329 327 319 311 328 322 330 216 200 189 182 189
331 326 35 64 357 49 118 39 21 73 47 35 28 23 12 354 24 56 24 5 359 358 352 348 345 341 338 333 335 332 326 331 329 329 324 335 334 329 331 314 204 195 182 183
345 305 22 91 52 130 55 14 346 332 51 25 9 11 6 349 322 4 5 356 353 352 347 345 342 341 335 336 338 337 336 338 334 335 332 331 324 335 329 325 322 214 196 192
350 354 99 35 69 50 10 346 333 327 86 9 8 4 1 0 16 338 340 348 348 348 348 344 348 341 342 341 341 339 338 334 355 344 333 323 314 320 329 324 316 311 218 212
343 347 23 44 101 92 354 322 323 318 348 343 356 356 358 356 327 317 336 343 341 339 345 352 348 347 342 342 343 338 337 343 336 335 328 321 320 312 317 312 317 316 306 226
24 329 25 336 63 70 4 20 80 300 328 335 350 341 340 325 324 333 334 338 334 339 350 353 352 346 343 346 343 339 338 335 331 327 324 319 313 306 313 317 326 325 308 270
28 144 81 91 84 49 87 141 143 134 244 328 320 320 316 319 327 324 331 329 332 336 349 350 346 339 342 349 345 338 336 334 329 324 321 318 312 305 301 305 318 321 317 290
84 16 93 84 328 279 160 112 85 62 250 292 278 282 298 309 314 318 317 323 330 335 349 339 343 345 345 344 344 340 335 332 328 325 319 316 313 309 313 313 289 299 312 295
209 345 337 231 344 348 109 59 36 320 308 288 275 259 270 273 292 279 311 322 327 331 345 343 343 340 339 333 341 341 340 334 329 325 319 316 306 301 304 298 304 283 269 263
132 197 104 239 217 166 261 305 333 336 310 285 296 309 302 273 293 289 312 312 320 332 333 337 334 332 330 330 337 341 341 340 330 329 329 319 313 305 283 290 296 26 13 268